Terminal Aerodrome Forecast
Issued by NWS

Home | Current Version | Previous Version | Text Only | Print | Product List | Glossary On
Versions: 1 2 3 4 5 6 7 8 9 10 11 12 13 14 15 16 17 18 19 20 21 22 23 24 25 26 27 28 29 30 31 32 33 34 35 36 37 38 39 40 41 42
000
FTAK31 PANC 212333
TAFACD
TAF
PACD 212333Z 2200/2224 31020G32KT P6SM -SHRA SCT025 BKN050
      TEMPO 2202/2206 BKN025
     FM220600 31015G25KT P6SM -SHSN BKN025
     FM221200 33015KT 2SM -SHSN BKN015
     FM221800 33018G28KT 5SM -SHRASN OVC035=

USA.gov is the U.S. government's official web portal to all federal, state and local government web resources and services.